Time,TemperatureF,DewpointF,PressureIn,WindDirection,WindDirectionDegrees,WindSpeedMPH,WindSpeedGustMPH,Humidity,HourlyPrecipIn,Conditions,Clouds,dailyrainin,SoftwareType,DateUTC
2013-06-12 00:03:00,77.5,75.9,30.04,SSW,194,0.0,1.0,95,0.00,,,0.00,meteohub,2013-06-12 05:03:00,
2013-06-12 00:08:00,77.5,75.9,30.04,SSW,194,0.0,0.0,95,0.00,,,0.00,meteohub,2013-06-12 05:08:00,
2013-06-12 00:13:00,77.4,75.7,30.04,SSW,194,0.0,0.0,95,0.00,,,0.00,meteohub,2013-06-12 05:13:00,
2013-06-12 00:18:00,77.4,75.7,30.04,SSW,194,0.0,0.0,95,0.00,,,0.00,meteohub,2013-06-12 05:18:00,
2013-06-12 00:23:00,77.4,76.1,30.04,SSW,194,0.0,0.0,96,0.00,,,0.00,meteohub,2013-06-12 05:23:00,
2013-06-12 00:28:00,77.2,75.9,30.04,SSW,194,0.0,0.0,96,0.00,,,0.00,meteohub,2013-06-12 05:28:00,
2013-06-12 00:33:00,77.2,75.9,30.05,SSW,194,0.0,0.0,96,0.00,,,0.00,meteohub,2013-06-12 05:33:00,
2013-06-12 00:38:00,77.2,75.9,30.04,SSW,194,0.0,0.0,96,0.00,,,0.00,meteohub,2013-06-12 05:38:00,
2013-06-12 00:43:00,77.2,75.9,30.04,SSW,194,0.0,0.0,96,0.00,,,0.00,meteohub,2013-06-12 05:43:00,
2013-06-12 00:48:00,77.0,75.7,30.04,SSW,194,0.0,0.0,96,0.00,,,0.00,meteohub,2013-06-12 05:48:00,
2013-06-12 00:53:00,76.8,75.6,30.04,SSW,194,0.0,0.0,96,0.00,,,0.00,meteohub,2013-06-12 05:53:00,
2013-06-12 00:58:00,76.8,75.9,30.04,SSW,194,0.0,0.0,97,0.00,,,0.00,meteohub,2013-06-12 05:58:00,
2013-06-12 01:03:00,76.8,75.9,30.04,SSW,194,0.0,0.0,97,0.00,,,0.00,meteohub,2013-06-12 06:03:00,
2013-06-12 01:08:00,76.6,75.7,30.04,SSW,194,0.0,0.0,97,0.00,,,0.00,meteohub,2013-06-12 06:08:00,
2013-06-12 01:13:00,76.6,75.7,30.04,SSW,194,0.0,0.0,97,0.00,,,0.00,meteohub,2013-06-12 06:13:00,
2013-06-12 01:18:00,76.6,75.7,30.04,SSW,194,0.0,0.0,97,0.00,,,0.00,meteohub,2013-06-12 06:18:00,
2013-06-12 01:23:00,76.6,75.7,30.04,SSW,194,0.0,0.0,97,0.00,,,0.00,meteohub,2013-06-12 06:23:00,
2013-06-12 01:28:00,76.5,75.6,30.04,SSW,194,0.0,0.0,97,0.00,,,0.00,meteohub,2013-06-12 06:28:00,
2013-06-12 01:33:00,76.5,75.6,30.04,SSW,194,0.0,0.0,97,0.00,,,0.00,meteohub,2013-06-12 06:33:00,
2013-06-12 01:38:00,76.5,75.6,30.04,SSW,194,0.0,0.0,97,0.00,,,0.00,meteohub,2013-06-12 06:38:00,
2013-06-12 01:43:00,76.5,75.6,30.04,SSW,194,0.0,0.0,97,0.00,,,0.00,meteohub,2013-06-12 06:43:00,
2013-06-12 01:48:00,76.3,75.4,30.04,SSW,194,0.0,0.0,97,0.00,,,0.00,meteohub,2013-06-12 06:48:00,
2013-06-12 01:53:00,76.3,75.4,30.03,SSW,194,0.0,0.0,97,0.00,,,0.00,meteohub,2013-06-12 06:53:00,
2013-06-12 01:58:00,76.3,75.4,30.03,SSW,194,0.0,0.0,97,0.00,,,0.00,meteohub,2013-06-12 06:58:00,
2013-06-12 02:03:00,76.1,75.2,30.03,SSW,194,0.0,0.0,97,0.00,,,0.00,meteohub,2013-06-12 07:03:00,
2013-06-12 02:08:00,76.1,75.2,30.03,SSW,194,0.0,0.0,97,0.00,,,0.00,meteohub,2013-06-12 07:08:00,
2013-06-12 02:13:00,75.9,75.4,30.03,SSW,194,0.0,0.0,98,0.00,,,0.00,meteohub,2013-06-12 07:13:00,
2013-06-12 02:18:00,75.9,75.4,30.03,SSW,194,0.0,0.0,98,0.00,,,0.00,meteohub,2013-06-12 07:18:00,
2013-06-12 02:23:00,75.9,75.4,30.03,SSW,194,0.0,0.0,98,0.00,,,0.00,meteohub,2013-06-12 07:23:00,
2013-06-12 02:28:00,75.9,75.4,30.03,SSW,194,0.0,0.0,98,0.00,,,0.00,meteohub,2013-06-12 07:28:00,
2013-06-12 02:33:00,75.9,75.4,30.03,SSW,194,0.0,0.0,98,0.00,,,0.00,meteohub,2013-06-12 07:33:00,
2013-06-12 02:38:00,75.9,75.4,30.03,SSW,194,0.0,0.0,98,0.00,,,0.00,meteohub,2013-06-12 07:38:00,
2013-06-12 02:43:00,75.7,75.2,30.04,SSW,194,0.0,0.0,98,0.00,,,0.00,meteohub,2013-06-12 07:43:00,
2013-06-12 02:48:00,75.7,75.2,30.04,SSW,194,0.0,0.0,98,0.00,,,0.00,meteohub,2013-06-12 07:48:00,
2013-06-12 02:53:00,75.7,75.2,30.04,SSW,194,0.0,0.0,98,0.00,,,0.00,meteohub,2013-06-12 07:53:00,
2013-06-12 02:58:00,75.7,75.2,30.04,SSW,194,0.0,0.0,98,0.00,,,0.00,meteohub,2013-06-12 07:58:00,
2013-06-12 03:03:00,75.7,75.2,30.04,SSW,194,0.0,0.0,98,0.00,,,0.00,meteohub,2013-06-12 08:03:00,
2013-06-12 03:08:00,75.7,75.4,30.04,SSW,194,0.0,0.0,99,0.00,,,0.00,meteohub,2013-06-12 08:08:00,
2013-06-12 03:13:00,75.7,75.4,30.04,SSW,194,0.0,0.0,99,0.00,,,0.00,meteohub,2013-06-12 08:13:00,
2013-06-12 03:18:00,75.6,75.0,30.03,SSW,194,0.0,0.0,98,0.00,,,0.00,meteohub,2013-06-12 08:18:00,
2013-06-12 03:23:00,75.6,75.0,30.03,SSW,194,0.0,0.0,98,0.00,,,0.00,meteohub,2013-06-12 08:23:00,
2013-06-12 03:29:00,75.4,74.8,30.03,SSW,194,0.0,0.0,98,0.00,,,0.00,meteohub,2013-06-12 08:29:00,
2013-06-12 03:34:00,75.4,74.8,30.04,SSW,194,0.0,0.0,98,0.00,,,0.00,meteohub,2013-06-12 08:34:00,
2013-06-12 03:39:00,75.4,74.8,30.04,SSW,194,0.0,0.0,98,0.00,,,0.00,meteohub,2013-06-12 08:39:00,
2013-06-12 03:44:00,75.4,74.8,30.04,SSW,194,0.0,0.0,98,0.00,,,0.00,meteohub,2013-06-12 08:44:00,
2013-06-12 03:49:00,75.4,75.0,30.04,SSW,194,0.0,0.0,99,0.00,,,0.00,meteohub,2013-06-12 08:49:00,
2013-06-12 03:54:00,75.2,74.8,30.04,SSW,194,0.0,0.0,99,0.00,,,0.00,meteohub,2013-06-12 08:54:00,
2013-06-12 03:59:00,75.0,74.7,30.04,SSW,194,0.0,0.0,99,0.00,,,0.00,meteohub,2013-06-12 08:59:00,
2013-06-12 04:04:00,75.0,74.5,30.04,SSW,194,0.0,0.0,98,0.00,,,0.00,meteohub,2013-06-12 09:04:00,
2013-06-12 04:09:00,75.0,74.5,30.04,SSW,194,0.0,0.0,98,0.00,,,0.00,meteohub,2013-06-12 09:09:00,
2013-06-12 04:14:00,75.0,74.7,30.04,SSW,194,0.0,0.0,99,0.00,,,0.00,meteohub,2013-06-12 09:14:00,
2013-06-12 04:19:00,75.0,74.7,30.04,SSW,194,0.0,0.0,99,0.00,,,0.00,meteohub,2013-06-12 09:19:00,
2013-06-12 04:24:00,75.0,74.7,30.04,SSW,194,0.0,0.0,99,0.00,,,0.00,meteohub,2013-06-12 09:24:00,
2013-06-12 04:29:00,74.8,74.5,30.04,SSW,194,0.0,0.0,99,0.00,,,0.00,meteohub,2013-06-12 09:29:00,
2013-06-12 04:34:00,74.8,74.5,30.04,SSW,194,0.0,0.0,99,0.00,,,0.00,meteohub,2013-06-12 09:34:00,
2013-06-12 04:39:00,74.8,74.5,30.04,SSW,194,0.0,0.0,99,0.00,,,0.00,meteohub,2013-06-12 09:39:00,
2013-06-12 04:44:00,74.8,74.5,30.04,SSW,194,0.0,0.0,99,0.00,,,0.00,meteohub,2013-06-12 09:44:00,
2013-06-12 04:49:00,74.8,74.5,30.04,SSW,194,0.0,0.0,99,0.00,,,0.00,meteohub,2013-06-12 09:49:00,
2013-06-12 04:54:00,74.7,74.3,30.04,SSW,194,0.0,0.0,99,0.00,,,0.00,meteohub,2013-06-12 09:54:00,
2013-06-12 04:59:00,74.7,74.3,30.04,SSW,194,0.0,0.0,99,0.00,,,0.00,meteohub,2013-06-12 09:59:00,
2013-06-12 05:04:00,74.7,74.3,30.05,SSW,194,0.0,0.0,99,0.00,,,0.00,meteohub,2013-06-12 10:04:00,
2013-06-12 05:09:00,74.5,74.1,30.05,SSW,194,0.0,0.0,99,0.00,,,0.00,meteohub,2013-06-12 10:09:00,
2013-06-12 05:14:00,74.3,73.9,30.05,SSW,194,0.0,0.0,99,0.00,,,0.00,meteohub,2013-06-12 10:14:00,
2013-06-12 05:19:00,74.1,73.8,30.05,SSW,194,0.0,0.0,99,0.00,,,0.00,meteohub,2013-06-12 10:19:00,
2013-06-12 05:24:00,74.1,73.8,30.05,SSW,194,0.0,0.0,99,0.00,,,0.00,meteohub,2013-06-12 10:24:00,
2013-06-12 05:29:00,73.9,73.6,30.05,SSW,194,0.0,0.0,99,0.00,,,0.00,meteohub,2013-06-12 10:29:00,
2013-06-12 05:34:00,73.9,73.6,30.05,SSW,194,0.0,0.0,99,0.00,,,0.00,meteohub,2013-06-12 10:34:00,
2013-06-12 05:39:00,73.9,73.6,30.05,SSW,194,0.0,0.0,99,0.00,,,0.00,meteohub,2013-06-12 10:39:00,
2013-06-12 05:44:00,73.9,73.6,30.05,SSW,194,0.0,0.0,99,0.00,,,0.00,meteohub,2013-06-12 10:44:00,
2013-06-12 05:49:00,73.9,73.6,30.05,SSW,194,0.0,0.0,99,0.00,,,0.00,meteohub,2013-06-12 10:49:00,
2013-06-12 05:54:00,73.8,73.4,30.06,SSW,194,0.0,0.0,99,0.00,,,0.00,meteohub,2013-06-12 10:54:00,
2013-06-12 05:59:00,73.8,73.4,30.06,SSW,194,0.0,0.0,99,0.00,,,0.00,meteohub,2013-06-12 10:59:00,
2013-06-12 06:04:00,73.8,73.4,30.06,SSW,194,0.0,0.0,99,0.00,,,0.00,meteohub,2013-06-12 11:04:00,
2013-06-12 06:09:00,73.8,73.4,30.06,SSW,194,0.0,0.0,99,0.00,,,0.00,meteohub,2013-06-12 11:09:00,
2013-06-12 06:14:00,73.8,73.4,30.06,SSW,194,0.0,0.0,99,0.00,,,0.00,meteohub,2013-06-12 11:14:00,
2013-06-12 06:19:00,73.9,73.6,30.06,SSW,194,0.0,0.0,99,0.00,,,0.00,meteohub,2013-06-12 11:19:00,
2013-06-12 06:24:00,73.8,73.4,30.06,SSW,194,0.0,0.0,99,0.00,,,0.00,meteohub,2013-06-12 11:24:00,
2013-06-12 06:29:00,73.9,73.6,30.06,SSW,194,0.0,0.0,99,0.00,,,0.00,meteohub,2013-06-12 11:29:00,
2013-06-12 06:34:00,73.9,73.9,30.06,SSW,194,0.0,0.0,100,0.00,,,0.00,meteohub,2013-06-12 11:34:00,
2013-06-12 06:39:00,74.1,73.8,30.06,SSW,194,0.0,0.0,99,0.00,,,0.00,meteohub,2013-06-12 11:39:00,
2013-06-12 06:44:00,74.3,74.3,30.06,SSW,194,0.0,0.0,100,0.00,,,0.00,meteohub,2013-06-12 11:44:00,
2013-06-12 06:49:00,74.5,74.5,30.06,SSW,194,0.0,0.0,100,0.00,,,0.00,meteohub,2013-06-12 11:49:00,
2013-06-12 06:54:00,74.8,74.8,30.06,SSW,194,0.0,0.0,100,0.00,,,0.00,meteohub,2013-06-12 11:54:00,
2013-06-12 06:59:00,75.0,75.0,30.06,SSW,194,0.0,0.0,100,0.00,,,0.00,meteohub,2013-06-12 11:59:00,
2013-06-12 07:04:00,75.6,75.6,30.07,SSW,194,0.0,0.0,100,0.00,,,0.00,meteohub,2013-06-12 12:04:00,
2013-06-12 07:09:00,75.9,75.9,30.06,SSW,194,0.0,0.0,100,0.00,,,0.00,meteohub,2013-06-12 12:09:00,
2013-06-12 07:14:00,76.6,76.6,30.06,SSW,194,0.0,0.0,100,0.00,,,0.00,meteohub,2013-06-12 12:14:00,
2013-06-12 07:19:00,76.8,76.8,30.06,SSW,194,0.0,0.0,100,0.00,,,0.00,meteohub,2013-06-12 12:19:00,
2013-06-12 07:24:00,77.0,77.0,30.07,SSW,194,0.0,0.0,100,0.00,,,0.00,meteohub,2013-06-12 12:24:00,
2013-06-12 07:30:00,77.2,77.2,30.07,SSW,194,0.0,0.0,100,0.00,,,0.00,meteohub,2013-06-12 12:30:00,
2013-06-12 07:35:00,77.5,77.5,30.07,SSW,194,0.0,0.0,100,0.00,,,0.00,meteohub,2013-06-12 12:35:00,
2013-06-12 07:39:00,78.1,77.7,30.07,SSW,194,0.0,1.0,99,0.00,,,0.00,meteohub,2013-06-12 12:39:00,
2013-06-12 07:45:00,78.4,78.1,30.08,SSW,194,0.0,1.0,99,0.00,,,0.00,meteohub,2013-06-12 12:45:00,
2013-06-12 07:50:00,78.4,77.9,30.08,SSW,194,0.0,0.0,98,0.00,,,0.00,meteohub,2013-06-12 12:50:00,
2013-06-12 07:55:00,79.2,78.6,30.08,SSW,194,1.0,1.0,98,0.00,,,0.00,meteohub,2013-06-12 12:55:00,
2013-06-12 08:00:00,79.2,77.9,30.07,SSW,194,2.0,2.0,96,0.00,,,0.00,meteohub,2013-06-12 13:00:00,
2013-06-12 08:05:00,79.7,78.4,30.08,SSW,194,0.0,4.0,96,0.00,,,0.00,meteohub,2013-06-12 13:05:00,
2013-06-12 08:10:00,80.1,78.3,30.08,SSW,194,1.0,4.0,94,0.00,,,0.00,meteohub,2013-06-12 13:10:00,
2013-06-12 08:15:00,80.2,78.4,30.08,SSW,194,0.0,4.0,94,0.00,,,0.00,meteohub,2013-06-12 13:15:00,
2013-06-12 08:20:00,80.8,78.3,30.08,SSW,194,2.0,4.0,92,0.00,,,0.00,meteohub,2013-06-12 13:20:00,
2013-06-12 08:25:00,81.0,78.4,30.08,SSW,202,3.0,4.0,92,0.00,,,0.00,meteohub,2013-06-12 13:25:00,
2013-06-12 08:30:00,81.1,78.6,30.08,SSW,202,3.0,4.0,92,0.00,,,0.00,meteohub,2013-06-12 13:30:00,
2013-06-12 08:35:00,81.7,78.4,30.08,South,190,1.0,5.0,90,0.00,,,0.00,meteohub,2013-06-12 13:35:00,
2013-06-12 08:40:00,82.2,78.6,30.08,South,190,1.0,5.0,89,0.00,,,0.00,meteohub,2013-06-12 13:40:00,
2013-06-12 08:45:00,82.6,78.6,30.08,South,190,2.0,5.0,88,0.00,,,0.00,meteohub,2013-06-12 13:45:00,
2013-06-12 08:50:00,82.8,78.4,30.08,SSW,199,2.0,5.0,87,0.00,,,0.00,meteohub,2013-06-12 13:50:00,
2013-06-12 08:55:00,82.8,78.4,30.08,SSW,204,0.0,5.0,87,0.00,,,0.00,meteohub,2013-06-12 13:55:00,
2013-06-12 09:00:00,83.3,78.3,30.08,ESE,111,1.0,5.0,85,0.00,,,0.00,meteohub,2013-06-12 14:00:00,
2013-06-12 09:05:00,83.8,78.8,30.09,South,186,2.0,5.0,85,0.00,,,0.00,meteohub,2013-06-12 14:05:00,
2013-06-12 09:10:00,84.2,78.8,30.08,SSW,192,2.0,6.0,84,0.00,,,0.00,meteohub,2013-06-12 14:10:00,
2013-06-12 09:15:00,84.2,78.4,30.09,SW,214,1.0,7.0,83,0.00,,,0.00,meteohub,2013-06-12 14:15:00,
2013-06-12 09:20:00,84.2,78.4,30.09,SSW,193,3.0,7.0,83,0.00,,,0.00,meteohub,2013-06-12 14:20:00,
2013-06-12 09:25:00,84.6,78.8,30.08,SSW,211,0.0,7.0,83,0.00,,,0.00,meteohub,2013-06-12 14:25:00,
2013-06-12 09:30:00,84.7,78.6,30.08,South,180,0.0,7.0,82,0.00,,,0.00,meteohub,2013-06-12 14:30:00,
2013-06-12 09:35:00,85.3,78.8,30.08,SW,222,1.0,5.0,81,0.00,,,0.00,meteohub,2013-06-12 14:35:00,
2013-06-12 09:40:00,85.5,78.3,30.09,SW,228,5.0,5.0,79,0.00,,,0.00,meteohub,2013-06-12 14:40:00,
2013-06-12 09:45:00,84.9,78.1,30.09,South,174,1.0,7.0,80,0.00,,,0.00,meteohub,2013-06-12 14:45:00,
2013-06-12 09:50:00,85.3,78.8,30.08,South,177,3.0,7.0,81,0.00,,,0.00,meteohub,2013-06-12 14:50:00,
2013-06-12 09:55:00,85.3,78.1,30.09,SSW,197,1.0,6.0,79,0.00,,,0.00,meteohub,2013-06-12 14:55:00,
2013-06-12 10:00:00,85.5,77.7,30.09,SE,137,3.0,7.0,78,0.00,,,0.00,meteohub,2013-06-12 15:00:00,
2013-06-12 10:05:00,85.5,77.7,30.09,SSW,211,1.0,7.0,78,0.00,,,0.00,meteohub,2013-06-12 15:05:00,
2013-06-12 10:10:00,86.4,78.6,30.08,West,267,3.0,7.0,78,0.00,,,0.00,meteohub,2013-06-12 15:10:00,
2013-06-12 10:15:00,86.2,78.1,30.08,SSW,213,2.0,7.0,77,0.00,,,0.00,meteohub,2013-06-12 15:15:00,
2013-06-12 10:20:00,86.5,78.1,30.08,WSW,252,3.0,6.0,76,0.00,,,0.00,meteohub,2013-06-12 15:20:00,
2013-06-12 10:25:00,86.4,77.9,30.09,SW,217,3.0,9.0,76,0.00,,,0.00,meteohub,2013-06-12 15:25:00,
2013-06-12 10:30:00,86.5,77.7,30.08,SW,215,3.0,9.0,75,0.00,,,0.00,meteohub,2013-06-12 15:30:00,
2013-06-12 10:35:00,87.1,77.4,30.08,SW,227,4.0,9.0,73,0.00,,,0.00,meteohub,2013-06-12 15:35:00,
2013-06-12 10:40:00,86.5,76.8,30.08,SW,215,6.0,7.0,73,0.00,,,0.00,meteohub,2013-06-12 15:40:00,
2013-06-12 10:45:00,86.7,77.4,30.09,SSW,206,6.0,7.0,74,0.00,,,0.00,meteohub,2013-06-12 15:45:00,
2013-06-12 10:50:00,87.1,76.1,30.08,South,169,2.0,8.0,70,0.00,,,0.00,meteohub,2013-06-12 15:50:00,
2013-06-12 10:55:00,87.8,77.2,30.09,South,180,3.0,8.0,71,0.00,,,0.00,meteohub,2013-06-12 15:55:00,
2013-06-12 11:00:00,88.0,77.0,30.09,SSE,159,2.0,8.0,70,0.00,,,0.00,meteohub,2013-06-12 16:00:00,
2013-06-12 11:05:00,88.5,76.1,30.09,ESE,119,1.0,8.0,67,0.00,,,0.00,meteohub,2013-06-12 16:05:00,
2013-06-12 11:10:00,89.1,76.6,30.09,South,171,3.0,8.0,67,0.00,,,0.00,meteohub,2013-06-12 16:10:00,
2013-06-12 11:15:00,89.4,77.0,30.09,SSW,203,4.0,7.0,67,0.00,,,0.00,meteohub,2013-06-12 16:15:00,
2013-06-12 11:20:00,88.7,76.3,30.09,SW,215,2.0,9.0,67,0.00,,,0.00,meteohub,2013-06-12 16:20:00,
2013-06-12 11:25:00,88.9,75.6,30.09,SW,229,1.0,9.0,65,0.00,,,0.00,meteohub,2013-06-12 16:25:00,
2013-06-12 11:30:00,89.1,77.2,30.09,SW,216,5.0,9.0,68,0.00,,,0.00,meteohub,2013-06-12 16:30:00,
2013-06-12 11:35:00,89.2,76.8,30.09,SSE,160,3.0,7.0,67,0.00,,,0.00,meteohub,2013-06-12 16:35:00,
2013-06-12 11:40:00,89.4,75.6,30.09,WSW,253,4.0,8.0,64,0.00,,,0.00,meteohub,2013-06-12 16:40:00,
2013-06-12 11:45:00,89.1,75.2,30.09,SSW,212,5.0,9.0,64,0.00,,,0.00,meteohub,2013-06-12 16:45:00,
2013-06-12 11:50:00,88.5,76.1,30.09,SW,229,5.0,9.0,67,0.00,,,0.00,meteohub,2013-06-12 16:50:00,
2013-06-12 11:56:00,88.9,76.5,30.09,South,188,2.0,8.0,67,0.00,,,0.00,meteohub,2013-06-12 16:56:00,
2013-06-12 12:01:00,89.8,76.5,30.09,SE,129,1.0,8.0,65,0.00,,,0.00,meteohub,2013-06-12 17:01:00,
2013-06-12 12:06:00,90.1,77.2,30.09,SE,143,4.0,8.0,66,0.00,,,0.00,meteohub,2013-06-12 17:06:00,
2013-06-12 12:11:00,90.0,76.6,30.09,SSW,205,2.0,8.0,65,0.00,,,0.00,meteohub,2013-06-12 17:11:00,
2013-06-12 12:16:00,90.0,76.6,30.09,West,261,3.0,8.0,65,0.00,,,0.00,meteohub,2013-06-12 17:16:00,
2013-06-12 12:21:00,90.0,76.1,30.09,SSW,202,4.0,8.0,64,0.00,,,0.00,meteohub,2013-06-12 17:21:00,
2013-06-12 12:26:00,90.1,76.8,30.09,SSW,204,4.0,10.0,65,0.00,,,0.00,meteohub,2013-06-12 17:26:00,
2013-06-12 12:31:00,90.1,76.8,30.08,SSW,196,3.0,10.0,65,0.00,,,0.00,meteohub,2013-06-12 17:31:00,
2013-06-12 12:36:00,90.3,77.0,30.08,SSW,193,3.0,10.0,65,0.00,,,0.00,meteohub,2013-06-12 17:36:00,
2013-06-12 12:41:00,90.9,77.0,30.08,SSE,161,1.0,8.0,64,0.00,,,0.00,meteohub,2013-06-12 17:41:00,
2013-06-12 12:46:00,90.9,76.5,30.08,SSE,167,3.0,7.0,63,0.00,,,0.00,meteohub,2013-06-12 17:46:00,
2013-06-12 12:51:00,91.0,75.2,30.08,South,173,1.0,7.0,60,0.00,,,0.00,meteohub,2013-06-12 17:51:00,
2013-06-12 12:56:00,91.0,76.3,30.08,SE,135,3.0,7.0,62,0.00,,,0.00,meteohub,2013-06-12 17:56:00,
2013-06-12 13:01:00,91.2,77.4,30.08,SE,137,1.0,6.0,64,0.00,,,0.00,meteohub,2013-06-12 18:01:00,
2013-06-12 13:06:00,91.8,75.4,30.08,SW,214,6.0,7.0,59,0.00,,,0.00,meteohub,2013-06-12 18:06:00,
2013-06-12 13:11:00,91.6,76.6,30.08,South,190,0.0,7.0,62,0.00,,,0.00,meteohub,2013-06-12 18:11:00,
2013-06-12 13:16:00,91.8,75.4,30.08,SW,224,5.0,7.0,59,0.00,,,0.00,meteohub,2013-06-12 18:16:00,
2013-06-12 13:21:00,91.0,75.2,30.07,West,276,4.0,9.0,60,0.00,,,0.00,meteohub,2013-06-12 18:21:00,
2013-06-12 13:26:00,91.6,75.7,30.07,SW,232,4.0,9.0,60,0.00,,,0.00,meteohub,2013-06-12 18:26:00,
2013-06-12 13:31:00,91.6,75.2,30.07,SW,215,4.0,9.0,59,0.00,,,0.00,meteohub,2013-06-12 18:31:00,
2013-06-12 13:36:00,91.6,75.7,30.07,SW,217,6.0,7.0,60,0.00,,,0.00,meteohub,2013-06-12 18:36:00,
2013-06-12 13:41:00,91.6,74.1,30.07,WSW,255,4.0,7.0,57,0.00,,,0.00,meteohub,2013-06-12 18:41:00,
2013-06-12 13:46:00,91.8,74.3,30.07,West,268,3.0,7.0,57,0.00,,,0.00,meteohub,2013-06-12 18:46:00,
2013-06-12 13:51:00,92.1,75.2,30.06,ESE,102,1.0,7.0,58,0.00,,,0.00,meteohub,2013-06-12 18:51:00,
2013-06-12 13:56:00,92.5,74.5,30.06,NE,55,2.0,6.0,56,0.00,,,0.00,meteohub,2013-06-12 18:56:00,
2013-06-12 14:01:00,92.3,74.3,30.06,SW,223,3.0,8.0,56,0.00,,,0.00,meteohub,2013-06-12 19:01:00,
2013-06-12 14:06:00,92.1,75.7,30.06,SSW,202,2.0,10.0,59,0.00,,,0.00,meteohub,2013-06-12 19:06:00,
2013-06-12 14:11:00,91.9,75.0,30.06,SW,219,3.0,10.0,58,0.00,,,0.00,meteohub,2013-06-12 19:11:00,
2013-06-12 14:16:00,91.9,75.0,30.06,SW,227,2.0,7.0,58,0.00,,,0.00,meteohub,2013-06-12 19:16:00,
2013-06-12 14:21:00,91.9,74.5,30.06,ESE,121,1.0,6.0,57,0.00,,,0.00,meteohub,2013-06-12 19:21:00,
2013-06-12 14:26:00,91.9,75.6,30.05,ESE,108,0.0,6.0,59,0.00,,,0.00,meteohub,2013-06-12 19:26:00,
2013-06-12 14:31:00,91.9,75.0,30.05,SE,126,1.0,5.0,58,0.00,,,0.00,meteohub,2013-06-12 19:31:00,
2013-06-12 14:36:00,91.8,74.3,30.05,SSW,201,3.0,7.0,57,0.00,,,0.00,meteohub,2013-06-12 19:36:00,
2013-06-12 14:41:00,92.1,74.1,30.05,SW,215,0.0,7.0,56,0.00,,,0.00,meteohub,2013-06-12 19:41:00,
2013-06-12 14:46:00,92.7,75.7,30.05,South,178,2.0,8.0,58,0.00,,,0.00,meteohub,2013-06-12 19:46:00,
2013-06-12 14:51:00,92.5,74.5,30.05,SSW,192,4.0,8.0,56,0.00,,,0.00,meteohub,2013-06-12 19:51:00,
2013-06-12 14:57:00,92.7,74.7,30.05,SW,224,5.0,8.0,56,0.00,,,0.00,meteohub,2013-06-12 19:57:00,
2013-06-12 15:02:00,92.5,73.9,30.04,SW,217,4.0,7.0,55,0.00,,,0.00,meteohub,2013-06-12 20:02:00,
2013-06-12 15:07:00,92.8,74.8,30.04,SSE,157,2.0,7.0,56,0.00,,,0.00,meteohub,2013-06-12 20:07:00,
2013-06-12 15:12:00,93.7,75.2,30.04,SE,135,4.0,6.0,55,0.00,,,0.00,meteohub,2013-06-12 20:12:00,
2013-06-12 15:17:00,93.0,74.5,30.04,SSE,150,0.0,8.0,55,0.00,,,0.00,meteohub,2013-06-12 20:17:00,
2013-06-12 15:22:00,92.7,74.7,30.04,SSW,207,3.0,8.0,56,0.00,,,0.00,meteohub,2013-06-12 20:22:00,
2013-06-12 15:27:00,92.7,74.7,30.04,South,185,0.0,8.0,56,0.00,,,0.00,meteohub,2013-06-12 20:27:00,
2013-06-12 15:32:00,93.2,74.7,30.04,SSE,148,0.0,7.0,55,0.00,,,0.00,meteohub,2013-06-12 20:32:00,
2013-06-12 15:37:00,92.8,74.8,30.04,East,92,0.0,6.0,56,0.00,,,0.00,meteohub,2013-06-12 20:37:00,
2013-06-12 15:42:00,92.3,75.9,30.04,East,85,1.0,6.0,59,0.00,,,0.00,meteohub,2013-06-12 20:42:00,
2013-06-12 15:47:00,92.1,75.7,30.03,SSE,165,0.0,6.0,59,0.00,,,0.00,meteohub,2013-06-12 20:47:00,
2013-06-12 15:52:00,92.8,77.4,30.03,SW,223,3.0,6.0,61,0.00,,,0.00,meteohub,2013-06-12 20:52:00,
2013-06-12 15:57:00,93.0,75.6,30.03,SE,142,0.0,8.0,57,0.00,,,0.00,meteohub,2013-06-12 20:57:00,
2013-06-12 16:02:00,93.6,76.1,30.03,SE,128,1.0,8.0,57,0.00,,,0.00,meteohub,2013-06-12 21:02:00,
2013-06-12 16:07:00,93.6,75.0,30.03,SSE,161,3.0,8.0,55,0.00,,,0.00,meteohub,2013-06-12 21:07:00,
2013-06-12 16:12:00,93.0,75.6,30.03,SE,140,1.0,7.0,57,0.00,,,0.00,meteohub,2013-06-12 21:12:00,
2013-06-12 16:17:00,93.0,75.6,30.03,South,178,3.0,7.0,57,0.00,,,0.00,meteohub,2013-06-12 21:17:00,
2013-06-12 16:22:00,93.0,76.1,30.02,SSW,197,3.0,7.0,58,0.00,,,0.00,meteohub,2013-06-12 21:22:00,
2013-06-12 16:27:00,93.2,75.2,30.02,South,187,4.0,9.0,56,0.00,,,0.00,meteohub,2013-06-12 21:27:00,
2013-06-12 16:32:00,93.0,75.6,30.02,ESE,119,3.0,9.0,57,0.00,,,0.00,meteohub,2013-06-12 21:32:00,
2013-06-12 16:37:00,93.2,74.1,30.02,SSW,209,0.0,7.0,54,0.00,,,0.00,meteohub,2013-06-12 21:37:00,
2013-06-12 16:42:00,93.4,73.8,30.02,SSW,209,1.0,7.0,53,0.00,,,0.00,meteohub,2013-06-12 21:42:00,
2013-06-12 16:47:00,93.7,75.2,30.02,WSW,245,2.0,7.0,55,0.00,,,0.00,meteohub,2013-06-12 21:47:00,
2013-06-12 16:52:00,93.6,76.1,30.01,ESE,103,1.0,7.0,57,0.00,,,0.00,meteohub,2013-06-12 21:52:00,
2013-06-12 16:57:00,93.0,74.5,30.01,SSE,157,2.0,7.0,55,0.00,,,0.00,meteohub,2013-06-12 21:57:00,
2013-06-12 17:02:00,92.7,74.7,30.01,SSE,150,4.0,7.0,56,0.00,,,0.00,meteohub,2013-06-12 22:02:00,
2013-06-12 17:07:00,92.7,75.2,30.01,SW,223,4.0,7.0,57,0.00,,,0.00,meteohub,2013-06-12 22:07:00,
2013-06-12 17:12:00,92.8,75.4,30.00,SW,217,1.0,7.0,57,0.00,,,0.00,meteohub,2013-06-12 22:12:00,
2013-06-12 17:17:00,92.8,75.4,30.00,SSE,150,3.0,7.0,57,0.00,,,0.00,meteohub,2013-06-12 22:17:00,
2013-06-12 17:22:00,92.7,74.7,30.00,WNW,297,1.0,6.0,56,0.00,,,0.00,meteohub,2013-06-12 22:22:00,
2013-06-12 17:27:00,92.7,74.7,30.00,SSW,213,3.0,6.0,56,0.00,,,0.00,meteohub,2013-06-12 22:27:00,
2013-06-12 17:32:00,92.5,75.0,30.00,SSW,196,4.0,6.0,57,0.00,,,0.00,meteohub,2013-06-12 22:32:00,
2013-06-12 17:37:00,92.7,75.7,29.99,South,188,1.0,7.0,58,0.00,,,0.00,meteohub,2013-06-12 22:37:00,
2013-06-12 17:42:00,92.8,75.9,29.99,SW,225,0.0,7.0,58,0.00,,,0.00,meteohub,2013-06-12 22:42:00,
2013-06-12 17:47:00,93.0,76.1,29.99,East,99,0.0,7.0,58,0.00,,,0.00,meteohub,2013-06-12 22:47:00,
2013-06-12 17:52:00,93.0,75.6,29.99,SE,126,0.0,5.0,57,0.00,,,0.00,meteohub,2013-06-12 22:52:00,
2013-06-12 17:57:00,92.7,75.2,29.99,SSE,157,5.0,5.0,57,0.00,,,0.00,meteohub,2013-06-12 22:57:00,
2013-06-12 18:02:00,92.1,75.2,29.99,SSW,192,2.0,6.0,58,0.00,,,0.00,meteohub,2013-06-12 23:02:00,
2013-06-12 18:07:00,92.3,75.9,29.99,SSW,193,2.0,6.0,59,0.00,,,0.00,meteohub,2013-06-12 23:07:00,
2013-06-12 18:12:00,92.1,76.3,29.99,SSW,211,1.0,6.0,60,0.00,,,0.00,meteohub,2013-06-12 23:12:00,
2013-06-12 18:17:00,91.9,76.1,29.99,South,176,2.0,5.0,60,0.00,,,0.00,meteohub,2013-06-12 23:17:00,
2013-06-12 18:22:00,91.9,75.6,29.99,SW,230,6.0,6.0,59,0.00,,,0.00,meteohub,2013-06-12 23:22:00,
2013-06-12 18:27:00,91.8,75.9,29.99,South,190,2.0,6.0,60,0.00,,,0.00,meteohub,2013-06-12 23:27:00,
2013-06-12 18:32:00,91.4,76.1,29.99,SSW,196,2.0,6.0,61,0.00,,,0.00,meteohub,2013-06-12 23:32:00,
2013-06-12 18:37:00,91.0,76.3,29.99,SSW,197,0.0,6.0,62,0.00,,,0.00,meteohub,2013-06-12 23:37:00,
2013-06-12 18:42:00,90.9,76.1,29.99,SSW,197,0.0,5.0,62,0.00,,,0.00,meteohub,2013-06-12 23:42:00,
2013-06-12 18:47:00,90.5,76.1,29.99,SSW,197,1.0,5.0,63,0.00,,,0.00,meteohub,2013-06-12 23:47:00,
2013-06-12 18:52:00,90.1,76.3,29.99,SSW,197,1.0,2.0,64,0.00,,,0.00,meteohub,2013-06-12 23:52:00,
2013-06-12 18:57:00,89.8,76.5,29.99,SSW,197,0.0,2.0,65,0.00,,,0.00,meteohub,2013-06-12 23:57:00,
2013-06-12 19:02:00,89.4,77.0,29.99,SSW,197,0.0,2.0,67,0.00,,,0.00,meteohub,2013-06-13 00:02:00,
2013-06-12 19:07:00,89.2,76.8,29.99,SSW,197,0.0,2.0,67,0.00,,,0.00,meteohub,2013-06-13 00:07:00,
2013-06-12 19:12:00,89.2,77.4,29.99,SSW,197,0.0,2.0,68,0.00,,,0.00,meteohub,2013-06-13 00:12:00,
2013-06-12 19:17:00,88.9,77.4,29.99,SSW,197,0.0,2.0,69,0.00,,,0.00,meteohub,2013-06-13 00:17:00,
2013-06-12 19:22:00,88.3,76.8,29.99,SSW,197,0.0,2.0,69,0.00,,,0.00,meteohub,2013-06-13 00:22:00,
2013-06-12 19:27:00,88.2,77.2,29.99,SSW,197,0.0,1.0,70,0.00,,,0.00,meteohub,2013-06-13 00:27:00,
2013-06-12 19:32:00,87.8,78.1,29.99,SSW,197,0.0,1.0,73,0.00,,,0.00,meteohub,2013-06-13 00:32:00,
2013-06-12 19:37:00,87.3,77.9,29.99,SSW,197,1.0,2.0,74,0.00,,,0.00,meteohub,2013-06-13 00:37:00,
2013-06-12 19:42:00,86.5,77.7,30.00,SSW,197,0.0,2.0,75,0.00,,,0.00,meteohub,2013-06-13 00:42:00,
2013-06-12 19:47:00,86.0,77.5,30.00,SSW,197,0.0,2.0,76,0.00,,,0.00,meteohub,2013-06-13 00:47:00,
2013-06-12 19:52:00,85.6,77.2,29.99,SSW,197,1.0,2.0,76,0.00,,,0.00,meteohub,2013-06-13 00:52:00,
2013-06-12 19:57:00,85.5,77.4,30.00,SSW,197,0.0,2.0,77,0.00,,,0.00,meteohub,2013-06-13 00:57:00,
2013-06-12 20:02:00,85.1,77.5,29.99,SSW,197,0.0,3.0,78,0.00,,,0.00,meteohub,2013-06-13 01:02:00,
2013-06-12 20:07:00,84.9,77.4,29.99,SSW,197,0.0,3.0,78,0.00,,,0.00,meteohub,2013-06-13 01:07:00,
2013-06-12 20:12:00,84.6,77.4,29.99,SSW,197,1.0,3.0,79,0.00,,,0.00,meteohub,2013-06-13 01:12:00,
2013-06-12 20:17:00,84.4,77.2,29.99,SSW,197,0.0,2.0,79,0.00,,,0.00,meteohub,2013-06-13 01:17:00,
2013-06-12 20:21:00,84.0,76.8,29.99,SSW,197,0.0,1.0,79,0.00,,,0.00,meteohub,2013-06-13 01:21:00,
2013-06-12 20:27:00,83.8,77.0,29.99,SSW,197,0.0,1.0,80,0.00,,,0.00,meteohub,2013-06-13 01:27:00,
2013-06-12 20:32:00,83.5,76.6,29.99,SSW,197,0.0,1.0,80,0.00,,,0.00,meteohub,2013-06-13 01:32:00,
2013-06-12 20:37:00,83.3,76.8,29.99,SSW,197,0.0,1.0,81,0.00,,,0.00,meteohub,2013-06-13 01:37:00,
2013-06-12 20:42:00,82.9,76.5,29.99,SSW,197,0.0,2.0,81,0.00,,,0.00,meteohub,2013-06-13 01:42:00,
2013-06-12 20:47:00,82.8,76.6,29.99,SSW,197,0.0,2.0,82,0.00,,,0.00,meteohub,2013-06-13 01:47:00,
2013-06-12 20:52:00,82.6,76.5,29.99,SSW,197,0.0,2.0,82,0.00,,,0.00,meteohub,2013-06-13 01:52:00,
2013-06-12 20:57:00,82.2,76.5,29.99,SSW,197,0.0,0.0,83,0.00,,,0.00,meteohub,2013-06-13 01:57:00,
2013-06-12 21:02:00,82.0,76.6,29.99,SSW,197,0.0,0.0,84,0.00,,,0.00,meteohub,2013-06-13 02:02:00,
2013-06-12 21:07:00,81.9,76.5,29.99,SSW,197,0.0,0.0,84,0.00,,,0.00,meteohub,2013-06-13 02:07:00,
2013-06-12 21:12:00,81.7,76.3,29.99,SSW,197,0.0,0.0,84,0.00,,,0.00,meteohub,2013-06-13 02:12:00,
2013-06-12 21:17:00,81.3,76.5,30.00,SSW,197,0.0,0.0,85,0.00,,,0.00,meteohub,2013-06-13 02:17:00,
2013-06-12 21:22:00,81.1,76.3,30.00,SSW,197,0.0,0.0,85,0.00,,,0.00,meteohub,2013-06-13 02:22:00,
2013-06-12 21:27:00,81.0,76.5,30.00,SSW,197,0.0,0.0,86,0.00,,,0.00,meteohub,2013-06-13 02:27:00,
2013-06-12 21:32:00,80.8,76.3,30.00,SSW,197,0.0,0.0,86,0.00,,,0.00,meteohub,2013-06-13 02:32:00,
2013-06-12 21:37:00,80.4,76.1,30.00,SSW,197,0.0,0.0,87,0.00,,,0.00,meteohub,2013-06-13 02:37:00,
2013-06-12 21:42:00,80.2,76.1,30.01,SSW,197,0.0,0.0,87,0.00,,,0.00,meteohub,2013-06-13 02:42:00,
2013-06-12 21:47:00,80.2,76.3,30.00,SSW,197,0.0,0.0,88,0.00,,,0.00,meteohub,2013-06-13 02:47:00,
2013-06-12 21:52:00,80.1,76.1,30.01,SSW,197,0.0,0.0,88,0.00,,,0.00,meteohub,2013-06-13 02:52:00,
2013-06-12 21:57:00,79.9,76.3,30.01,SSW,197,0.0,0.0,89,0.00,,,0.00,meteohub,2013-06-13 02:57:00,
2013-06-12 22:02:00,79.9,76.3,30.01,SSW,197,0.0,0.0,89,0.00,,,0.00,meteohub,2013-06-13 03:02:00,
2013-06-12 22:07:00,79.7,76.5,30.01,SSW,197,0.0,0.0,90,0.00,,,0.00,meteohub,2013-06-13 03:07:00,
2013-06-12 22:12:00,79.5,76.3,30.01,SSW,197,0.0,0.0,90,0.00,,,0.00,meteohub,2013-06-13 03:12:00,
2013-06-12 22:17:00,79.3,76.1,30.01,SSW,197,0.0,0.0,90,0.00,,,0.00,meteohub,2013-06-13 03:17:00,
2013-06-12 22:22:00,79.3,76.1,30.01,SSW,197,1.0,2.0,90,0.00,,,0.00,meteohub,2013-06-13 03:22:00,
2013-06-12 22:27:00,79.3,76.1,30.01,SSW,197,0.0,2.0,90,0.00,,,0.00,meteohub,2013-06-13 03:27:00,
2013-06-12 22:32:00,79.3,76.1,30.01,SSW,197,0.0,2.0,90,0.00,,,0.00,meteohub,2013-06-13 03:32:00,
2013-06-12 22:37:00,79.2,75.9,30.01,SSW,197,0.0,2.0,90,0.00,,,0.00,meteohub,2013-06-13 03:37:00,
2013-06-12 22:42:00,79.2,75.9,30.02,SSW,197,0.0,1.0,90,0.00,,,0.00,meteohub,2013-06-13 03:42:00,
2013-06-12 22:47:00,79.2,76.3,30.02,SSW,197,0.0,1.0,91,0.00,,,0.00,meteohub,2013-06-13 03:47:00,
2013-06-12 22:52:00,79.0,76.1,30.01,SSW,197,0.0,2.0,91,0.00,,,0.00,meteohub,2013-06-13 03:52:00,
2013-06-12 22:57:00,79.0,76.1,30.01,SSW,197,0.0,3.0,91,0.00,,,0.00,meteohub,2013-06-13 03:57:00,
2013-06-12 23:01:00,79.0,76.1,30.01,SSW,197,0.0,3.0,91,0.00,,,0.00,meteohub,2013-06-13 04:01:00,
2013-06-12 23:02:00,79.0,76.1,30.02,SSW,197,0.0,3.0,91,0.00,,,0.00,meteohub,2013-06-13 04:02:00,
2013-06-12 23:03:00,79.0,76.1,30.02,SSW,197,1.0,3.0,91,0.00,,,0.00,meteohub,2013-06-13 04:03:00,
2013-06-12 23:08:00,79.0,76.1,30.02,SSW,197,0.0,3.0,91,0.00,,,0.00,meteohub,2013-06-13 04:08:00,
2013-06-12 23:13:00,78.8,75.9,30.02,SSW,197,0.0,3.0,91,0.00,,,0.00,meteohub,2013-06-13 04:13:00,
2013-06-12 23:18:00,78.8,75.9,30.02,SSW,197,0.0,2.0,91,0.00,,,0.00,meteohub,2013-06-13 04:18:00,
2013-06-12 23:23:00,78.6,75.7,30.02,SSW,197,0.0,2.0,91,0.00,,,0.00,meteohub,2013-06-13 04:23:00,
2013-06-12 23:28:00,78.6,75.7,30.01,SSW,197,0.0,3.0,91,0.00,,,0.00,meteohub,2013-06-13 04:28:00,
2013-06-12 23:33:00,78.4,75.6,30.02,SSW,197,1.0,3.0,91,0.00,,,0.00,meteohub,2013-06-13 04:33:00,
2013-06-12 23:38:00,78.4,75.6,30.02,SSW,197,0.0,3.0,91,0.00,,,0.00,meteohub,2013-06-13 04:38:00,
2013-06-12 23:43:00,78.4,75.6,30.02,SSW,198,0.0,3.0,91,0.00,,,0.00,meteohub,2013-06-13 04:43:00,
2013-06-12 23:48:00,78.4,75.6,30.02,SSW,198,0.0,3.0,91,0.00,,,0.00,meteohub,2013-06-13 04:48:00,
2013-06-12 23:53:00,78.4,75.6,30.02,SSW,198,0.0,3.0,91,0.00,,,0.00,meteohub,2013-06-13 04:53:00,
2013-06-12 23:58:00,78.4,75.6,30.02,SSW,198,0.0,2.0,91,0.00,,,0.00,meteohub,2013-06-13 04:58:00,